Location: Newark
(40.0251°N, 85.2247°W)
Time: 22:08:01
(UTC+00:00)

Hubble Space Telescope - Pass Details

Date: 20 December 2019
Orbit: 536 x 540 km, 28.5° (Epoch: 26 January)

Event Time Altitude Azimuth Distance (km) Brightness Sun altitude
Exits shadow 10:36:35 16° 174° (S) 1,435 3.1 -26.3°
Drops below altitude 10° 10:38:47 10° 142° (SE) 1,784 4.0 -25.9°
Sets 10:41:42 0° 121° (ESE) 2,675 5.5 -25.3°
